Wind_Speed
32 32 31 30 29 29 29 29 29 29 29 29 29 29 30 31 31 32 32 32 32 33 33 34 34 34 34 35 36 36 36 36 36 36 36 37 37 38 38 37 37 37 37
35 34 33 32 31 31 30 30 30 30 30 30 31 31 31 31 31 32 32 33 33 33 34 34 34 34 34 35 36 36 36 36 36 36 36 37 37 37 37 37 38 38 38
37 36 35 34 33 32 32 31 31 32 32 32 33 32 32 32 32 32 33 34 34 34 34 35 35 35 35 35 35 35 36 36 36 36 37 37 37 37 37 38 38 39 39
39 38 37 36 35 34 34 33 33 33 33 33 33 33 33 32 33 34 34 35 35 35 35 35 35 35 35 35 35 36 36 36 36 37 37 38 38 37 37 38 38 39 39
41 40 38 37 36 36 35 34 34 34 34 34 34 34 33 34 35 35 35 35 35 35 36 36 35 35 35 35 35 36 36 36 37 38 38 39 39 38 38 38 39 40 40
42 41 39 38 37 36 36 35 35 34 34 34 34 34 34 34 35 35 35 35 35 36 36 36 36 35 35 36 36 36 37 37 38 38 39 39 39 39 39 39 40 40 41
43 41 40 39 38 37 36 36 35 35 35 34 34 34 34 35 35 35 35 35 35 35 36 36 35 35 35 36 36 36 37 38 38 39 39 40 40 40 40 41 41 41 42
43 41 40 39 38 37 37 36 36 35 35 34 34 34 35 35 35 35 35 35 35 35 36 35 35 35 35 36 36 37 38 38 39 39 39 40 40 40 42 42 43 43 42
42 40 39 38 38 37 37 36 36 35 35 35 35 35 35 35 35 35 35 35 35 35 35 35 35 35 35 36 37 37 38 38 39 39 40 40 41 42 43 44 44 45 45
40 39 38 37 37 37 36 36 36 35 35 35 35 35 35 35 35 35 34 34 34 35 35 35 35 35 36 37 37 38 38 39 39 40 41 41 42 44 45 45 45 46 48
38 38 38 37 37 36 36 36 36 36 36 35 35 35 35 34 34 34 34 34 35 35 35 36 36 36 37 37 38 38 39 39 40 41 42 43 44 45 46 46 47 49 50
37 37 37 37 37 37 37 37 36 36 35 35 35 34 34 34 34 34 34 35 35 35 35 36 36 37 37 38 38 39 40 40 41 42 43 44 45 46 47 48 49 50 52
36 36 36 37 37 37 37 37 36 36 35 34 34 34 33 34 34 34 34 35 35 35 36 36 37 37 38 38 39 40 40 41 42 43 44 45 46 47 48 49 51 53 54
36 36 36 36 36 36 36 36 35 35 34 34 34 33 33 33 34 34 34 35 35 35 36 37 37 38 38 39 40 40 41 42 43 44 45 46 47 48 50 52 53 55 57
36 37 36 36 36 35 35 35 35 34 34 34 33 33 33 33 33 33 34 34 35 36 36 37 38 38 38 39 40 41 42 43 44 45 46 48 49 51 52 54 56 57 59
37 37 37 36 35 35 35 35 35 34 34 33 33 33 33 33 33 34 34 34 35 36 37 37 38 38 39 40 41 42 43 44 45 46 47 49 51 53 54 56 58 59 61
38 37 36 36 36 35 35 35 35 34 34 33 33 33 33 33 33 34 34 35 36 36 37 37 38 39 39 40 42 43 44 45 46 47 49 51 53 55 56 57 59 61 62
39 38 37 37 36 36 36 35 35 34 34 34 33 33 33 33 34 34 35 35 36 37 37 38 39 39 40 41 43 44 45 46 47 49 50 52 54 56 57 58 60 61 62
41 39 38 38 37 36 36 36 35 35 34 34 34 33 34 34 34 35 35 36 37 38 38 38 39 39 40 42 43 45 46 47 48 50 52 53 55 56 58 60 61 61 61
40 39 38 38 37 36 36 35 35 35 34 34 34 34 35 35 35 35 36 37 37 38 38 38 39 40 41 43 44 46 47 48 49 51 52 54 56 57 59 61 61 61 61
40 39 39 38 37 37 36 35 35 35 35 35 35 35 35 35 36 36 37 37 38 38 38 39 40 41 43 44 45 46 47 48 50 51 53 55 57 58 60 61 61 60 61
40 40 39 39 38 37 36 35 35 35 35 35 35 35 35 36 36 37 37 37 38 38 39 40 41 42 43 45 46 47 48 49 51 52 54 55 57 58 60 60 60 61 62
39 39 39 38 38 37 36 36 35 35 35 35 35 35 35 36 36 37 37 37 38 38 40 41 42 43 44 46 46 47 49 50 51 52 54 56 58 59 60 60 61 61 62
38 38 38 37 37 37 37 36 36 36 36 35 35 35 36 36 36 37 37 37 38 39 40 41 43 44 45 46 47 48 49 50 51 53 55 57 58 59 60 61 61 61 61
37 37 37 36 36 36 36 35 35 35 35 35 35 36 35 36 36 36 37 38 39 40 41 42 43 44 45 46 47 48 49 51 53 55 56 57 58 59 60 61 61 60 60
35 35 35 35 35 35 35 34 34 35 35 35 35 35 35 36 36 37 38 39 40 40 41 42 43 44 45 46 47 49 51 53 54 55 56 57 58 59 60 60 58 58 57
Wind_Direction
246 249 252 254 256 259 262 265 269 272 275 277 279 282 284 286 288 289 290 290 291 292 293 293 294 296 296 296 296 296 297 297 297 297 298 300 300 300 301 301 302 302 302
247 251 254 256 258 260 262 265 268 271 273 276 278 281 283 286 287 288 289 289 289 291 292 293 294 295 295 295 295 295 296 297 298 298 299 300 300 300 301 301 302 302 303
248 251 254 256 258 260 262 265 267 270 272 275 277 280 282 284 286 286 287 288 289 290 291 292 293 294 294 294 295 295 296 297 298 298 299 300 300 300 301 302 302 303 303
248 251 253 255 257 259 261 264 266 269 271 274 276 278 281 282 283 285 286 287 288 289 289 290 292 292 293 293 294 295 296 297 298 299 299 300 300 300 301 302 302 303 303
249 251 253 255 257 259 261 264 266 268 270 273 275 276 278 280 282 283 284 285 286 287 288 289 291 292 293 294 295 295 296 297 298 299 299 300 300 301 301 302 303 303 303
249 252 253 254 256 258 261 263 265 267 269 271 273 275 277 279 280 282 283 284 286 287 288 289 290 291 292 293 294 295 296 297 298 298 299 300 301 301 302 302 303 303 303
249 251 253 254 256 258 260 262 264 266 268 269 271 274 276 278 279 281 282 283 285 286 287 289 290 291 292 293 294 296 296 297 297 298 299 300 301 301 302 302 302 302 303
248 250 252 254 256 258 259 261 263 265 267 269 271 273 275 277 279 280 281 283 284 285 286 288 289 291 291 293 294 296 296 296 297 298 299 299 300 301 302 302 302 302 303
247 249 250 252 254 256 258 260 262 264 266 269 271 272 274 276 278 279 281 282 283 284 285 286 288 290 291 292 294 295 296 297 298 298 299 299 300 300 302 302 302 303 303
246 248 249 250 252 254 256 259 261 264 266 268 270 272 274 275 277 279 280 281 282 283 284 286 288 289 290 292 293 295 296 297 298 298 299 299 300 301 302 302 302 303 303
244 247 249 251 252 254 257 259 261 263 265 267 269 271 272 274 276 277 278 280 282 283 284 286 287 289 290 292 293 294 295 296 297 297 298 299 300 301 302 302 302 303 304
243 245 247 249 251 253 256 258 260 262 264 266 268 269 271 273 275 277 278 279 281 283 284 286 288 289 290 292 293 294 295 296 296 297 298 299 300 301 302 302 303 303 304
242 244 246 248 250 252 254 257 259 261 263 265 266 268 271 273 275 276 278 279 281 282 284 286 288 289 290 291 292 293 294 295 296 297 298 299 300 301 301 302 302 303 304
242 244 245 247 249 252 255 257 258 260 262 264 266 268 271 273 275 276 278 279 281 283 285 286 287 288 290 291 292 293 295 296 297 297 298 299 299 300 300 301 302 303 304
241 243 245 247 249 251 254 256 258 259 261 264 266 268 270 272 274 276 278 279 281 283 285 286 287 288 289 291 292 293 295 297 297 297 298 299 299 300 301 302 303 303 304
240 242 245 246 248 250 252 255 257 259 261 263 265 267 270 272 274 276 278 280 281 283 285 286 287 288 289 291 292 294 295 297 297 297 298 298 299 300 301 302 303 304 304
239 242 245 246 248 250 252 254 257 259 261 263 265 268 270 272 275 277 279 281 282 284 285 286 287 288 289 291 292 294 295 297 297 297 298 299 300 301 302 303 304 304 305
240 242 244 247 249 251 253 254 256 258 260 263 266 268 271 273 275 277 279 281 283 284 285 286 287 289 290 291 293 295 296 297 297 298 298 299 300 301 302 303 304 305 305
240 242 244 246 249 252 254 255 257 259 261 264 267 269 271 273 276 277 279 281 283 284 286 287 288 290 291 293 294 295 297 297 298 298 299 300 301 302 303 304 305 305 305
239 242 244 246 249 251 253 255 257 259 262 264 266 268 271 274 276 278 280 282 283 285 286 288 290 291 292 294 295 296 297 297 298 299 300 301 302 303 304 305 306 306 305
238 241 243 245 247 249 252 254 257 259 261 264 266 269 271 274 276 278 280 282 284 285 287 288 290 292 293 295 296 297 298 299 300 300 301 302 303 304 305 306 306 306 306
238 240 243 245 247 249 251 254 257 259 261 264 267 269 272 274 276 278 281 283 284 286 288 289 291 293 294 295 297 298 299 300 301 301 302 303 304 305 306 306 306 306 307
239 240 242 244 246 248 251 254 257 259 261 264 266 269 272 274 277 279 281 283 285 287 289 291 292 294 295 297 298 299 300 301 302 303 304 304 305 306 306 306 307 307 307
239 241 242 243 246 249 251 254 257 259 261 264 266 270 273 275 277 279 281 284 286 288 290 292 293 295 296 298 299 300 301 303 303 304 305 306 307 307 307 307 308 308 308
239 240 241 244 246 249 252 254 256 258 261 264 268 271 273 275 278 280 282 285 287 290 292 293 295 296 298 299 301 302 303 304 305 305 306 307 307 308 308 308 308 308 309
237 240 242 244 246 249 251 253 256 259 263 266 268 270 273 276 278 281 284 286 288 291 292 294 296 297 299 300 302 303 304 305 306 307 307 308 308 308 309 309 309 309 310
Height
5796 5798 5801 5803 5805 5806 5807 5808 5808 5808 5808 5808 5807 5807 5806 5805 5804 5802 5801 5799 5798 5796 5794 5792 5791 5789 5786 5784 5782 5779 5776 5774 5772 5769 5767 5764 5761 5758 5755 5752 5749 5746 5744
5789 5791 5793 5796 5798 5799 5800 5801 5801 5801 5801 5801 5801 5800 5800 5799 5797 5796 5794 5793 5791 5790 5788 5786 5784 5782 5780 5777 5775 5772 5770 5767 5765 5762 5760 5757 5755 5751 5748 5745 5742 5739 5736
5782 5784 5786 5788 5790 5792 5793 5794 5794 5794 5794 5794 5794 5793 5793 5792 5790 5789 5787 5786 5785 5783 5781 5779 5777 5775 5773 5770 5768 5765 5763 5760 5758 5755 5753 5750 5747 5744 5741 5738 5735 5731 5728
5773 5776 5778 5780 5783 5784 5785 5786 5787 5787 5787 5787 5786 5786 5786 5785 5783 5782 5781 5779 5778 5776 5774 5772 5770 5768 5766 5763 5761 5758 5756 5753 5751 5748 5745 5742 5740 5737 5734 5731 5727 5724 5721
5764 5767 5770 5772 5774 5776 5777 5778 5779 5779 5779 5779 5779 5779 5778 5778 5776 5775 5773 5772 5771 5769 5767 5765 5763 5761 5759 5756 5754 5751 5749 5746 5744 5741 5738 5735 5732 5729 5726 5724 5720 5716 5712
5755 5758 5761 5763 5765 5767 5769 5770 5771 5771 5771 5772 5771 5771 5771 5770 5768 5767 5766 5765 5763 5761 5759 5757 5756 5754 5751 5749 5747 5744 5742 5739 5736 5733 5730 5727 5724 5721 5718 5715 5712 5708 5704
5746 5749 5752 5755 5757 5759 5760 5761 5762 5763 5763 5764 5764 5763 5763 5762 5761 5760 5758 5757 5756 5754 5752 5750 5748 5746 5744 5742 5740 5737 5735 5732 5729 5726 5723 5719 5716 5713 5710 5707 5703 5700 5696
5737 5740 5743 5746 5748 5750 5751 5753 5754 5755 5755 5755 5755 5755 5755 5754 5753 5752 5751 5750 5748 5746 5744 5743 5741 5739 5737 5735 5732 5730 5727 5724 5721 5718 5715 5711 5708 5705 5701 5698 5694 5691 5687
5728 5731 5734 5737 5739 5741 5743 5744 5745 5746 5747 5747 5747 5747 5747 5746 5745 5744 5743 5742 5740 5739 5737 5735 5733 5731 5729 5727 5725 5722 5719 5716 5713 5710 5707 5703 5700 5696 5692 5688 5684 5681 5677
5719 5722 5725 5728 5730 5732 5734 5735 5737 5738 5738 5739 5739 5739 5738 5738 5737 5736 5735 5734 5732 5731 5729 5727 5726 5724 5721 5719 5717 5714 5711 5708 5705 5702 5698 5695 5691 5687 5683 5679 5675 5670 5666
5710 5713 5716 5719 5721 5723 5725 5726 5728 5729 5730 5730 5731 5730 5730 5729 5729 5728 5727 5726 5724 5723 5721 5719 5718 5716 5714 5711 5709 5706 5703 5700 5697 5693 5689 5686 5682 5678 5673 5669 5664 5660 5655
5701 5704 5707 5710 5712 5714 5716 5718 5719 5720 5721 5722 5722 5722 5722 5721 5721 5720 5719 5717 5716 5715 5713 5712 5710 5708 5705 5703 5700 5697 5694 5691 5688 5684 5680 5677 5672 5668 5663 5659 5654 5649 5644
5692 5695 5698 5701 5703 5705 5707 5709 5710 5711 5712 5713 5713 5713 5713 5713 5712 5711 5710 5709 5708 5707 5705 5703 5701 5699 5697 5694 5692 5689 5686 5682 5679 5675 5671 5667 5662 5658 5653 5648 5643 5637 5632
5683 5686 5689 5692 5694 5696 5698 5700 5701 5703 5704 5704 5705 5705 5705 5705 5704 5703 5702 5701 5700 5698 5697 5695 5693 5690 5688 5685 5683 5680 5676 5673 5669 5665 5661 5657 5652 5648 5642 5637 5631 5625 5619
5674 5677 5680 5683 5685 5687 5689 5691 5692 5694 5695 5696 5696 5697 5696 5696 5695 5695 5694 5692 5691 5690 5688 5686 5684 5681 5679 5676 5673 5670 5667 5663 5659 5655 5651 5646 5641 5636 5631 5625 5619 5613 5606
5665 5668 5671 5674 5676 5678 5680 5682 5684 5685 5686 5687 5688 5688 5688 5687 5687 5686 5685 5684 5682 5681 5679 5677 5675 5672 5670 5667 5664 5661 5657 5653 5649 5645 5640 5635 5630 5625 5619 5613 5606 5599 5592
5656 5659 5662 5664 5667 5669 5671 5673 5675 5676 5677 5678 5679 5679 5679 5678 5678 5677 5676 5675 5673 5672 5670 5668 5665 5663 5660 5657 5654 5651 5647 5643 5639 5635 5630 5625 5619 5613 5607 5600 5593 5586 5577
5646 5649 5652 5655 5657 5660 5662 5664 5666 5667 5669 5669 5670 5670 5670 5669 5669 5668 5667 5666 5664 5662 5660 5658 5656 5653 5650 5647 5644 5640 5637 5633 5628 5623 5618 5613 5607 5600 5594 5588 5581 5573 5564
5636 5639 5643 5646 5648 5651 5653 5655 5657 5658 5659 5660 5661 5661 5661 5660 5660 5659 5658 5656 5655 5653 5651 5649 5646 5644 5640 5637 5634 5630 5626 5622 5617 5612 5606 5601 5595 5588 5581 5575 5568 5560 5551
5626 5630 5633 5637 5640 5642 5644 5646 5648 5649 5650 5651 5651 5652 5652 5651 5651 5650 5649 5647 5645 5643 5641 5639 5636 5634 5630 5627 5623 5619 5615 5611 5606 5600 5594 5588 5581 5574 5567 5560 5553 5545 5537
5617 5620 5624 5627 5630 5632 5635 5637 5638 5640 5641 5641 5642 5642 5642 5642 5641 5640 5639 5637 5636 5634 5632 5629 5627 5623 5620 5616 5612 5608 5604 5599 5594 5588 5582 5575 5568 5561 5554 5546 5538 5530 5522
5606 5610 5614 5618 5621 5623 5626 5628 5629 5631 5631 5632 5632 5633 5632 5632 5631 5631 5629 5628 5626 5624 5621 5619 5616 5612 5609 5605 5601 5596 5592 5586 5581 5575 5569 5562 5555 5548 5540 5532 5524 5516 5507
5597 5601 5604 5608 5611 5614 5616 5619 5620 5621 5622 5622 5623 5623 5623 5622 5622 5621 5619 5618 5616 5613 5611 5608 5605 5602 5598 5593 5589 5584 5579 5574 5568 5562 5556 5549 5542 5534 5526 5518 5509 5501 5493
5587 5591 5595 5599 5602 5605 5607 5609 5610 5611 5612 5613 5614 5614 5613 5613 5612 5611 5609 5608 5605 5603 5600 5597 5594 5590 5586 5582 5577 5572 5567 5561 5555 5549 5542 5535 5527 5520 5512 5503 5495 5486 5478
5579 5582 5586 5590 5593 5596 5598 5600 5601 5602 5603 5604 5604 5604 5604 5603 5602 5601 5599 5597 5595 5592 5589 5586 5583 5579 5575 5570 5565 5560 5555 5549 5543 5536 5529 5521 5513 5506 5497 5489 5480 5472 5464
5570 5574 5577 5581 5584 5586 5588 5590 5592 5593 5594 5594 5594 5594 5594 5593 5592 5590 5588 5586 5584 5581 5578 5574 5571 5567 5563 5558 5553 5548 5542 5536 5529 5522 5515 5507 5499 5492 5483 5475 5467 5458 5450